sat.trackr.live / text

‹ back to catalog

EDRS-C

NORAD 44475 · 2019-049A

PAYLOAD ACTIVE UNKNOWN

§ Identity

Operator
Country
ESA
Launch date
2019-08-06
Launch site
FRGUI
Launch vehicle
Mass (kg)
RCS (m²)

Purposes: comms

External: N2YO · Heavens-Above · Gunter

§ Orbital elements

Epoch: 2026-09-19T22:46:47.900064Z

Period
1,436.09 min
Inclination
0.0162°
Eccentricity
0.0001157
Mean motion
1.00272578 rev/d
Perigee alt
35,781.5 km
Apogee alt
35,791.3 km
Semi-major
42,164.5 km
B*
0.0000e+0
RAAN
202.6733°
Arg perigee
325.0175°
Mean anomaly
315.3726°
Rev number
2,616

§ Raw data

EDRS-C1 44475U 19049A   26262.94916551 -.00000266  00000+0  00000+0 0  99982 44475   0.0162 202.6733 0001157 325.0175 315.3726  1.00272578 26169

JSON: /api/v1/satellites/44475 · /tle

For live sub-satellite position, see the globe view (requires WebGL).

§ Visibility from observer

Set your observer location to see the next 7 days of passes ≥ 10°. The values pass through the URL so the page stays shareable.

No JS? Fill the form by hand. The geolocation button needs JavaScript.